FW0286 Weather Reports


time (UTC)temp
C
wind
direction
speed
KPH
gust
KPH
rain 1hr
cm
rain 24hr
cm
rain mn
cm
humidity
%
barometer
mb
20260505101954 12 11 0.0 0.0 0.00 0.00 0.00 88 1016.1
20260505101500 12 11 0.0 0.0 0.00 0.00 0.00 87 1016.0
20260505101456 12 12 0.0 0.0 0.00 0.00 0.00 88 1016.1
20260505100954 12 11 0.0 0.0 0.00 0.00 0.00 87 1016.0
20260505095954 12 11 0.0 0.0 0.00 0.00 0.00 86 1015.9
20260505095454 12 11 0.0 0.0 0.00 0.00 0.00 86 1015.8
20260505094953 13 11 0.0 0.0 0.00 0.00 0.00 86 1015.9
20260505094454 13 11 0.0 0.0 0.00 0.00 0.00 87 1015.9
20260505093952 13 11 0.0 0.0 0.00 0.00 0.00 87 1015.8
20260505093452 12 11 0.0 0.0 0.00 0.00 0.00 86 1015.8
20260505092951 13 12 0.0 0.0 0.00 0.00 0.00 86 1015.7
20260505092452 13 11 0.0 0.0 0.00 0.00 0.00 85 1015.7
20260505091946 13 11 0.0 0.0 0.00 0.00 0.00 85 1015.6
20260505091448 13 12 0.0 0.0 0.00 0.00 0.00 85 1015.6
20260505091437 13 12 0.0 0.0 0.00 0.00 0.00 83 1015.7
20260505090929 13 12 0.0 0.0 0.00 0.00 0.00 85 1015.7
20260505085930 13 11 0.0 0.0 0.00 0.00 0.00 85 1015.8
20260505085422 13 11 0.0 0.0 0.00 0.00 0.00 85 1015.8
20260505084919 13 12 0.0 0.0 0.00 0.00 0.00 86 1015.7
20260505084416 13 12 0.0 0.0 0.00 0.00 0.00 84 1015.7
20260505083918 13 11 0.0 0.0 0.00 0.00 0.00 84 1015.7
20260505083414 13 11 0.0 0.0 0.00 0.00 0.00 85 1015.6
20260505082918 13 11 0.0 0.0 0.00 0.00 0.00 84 1015.4
20260505082912 13 11 0.0 0.0 0.00 0.00 0.00 84 1015.5
20260505081906 13 12 0.0 0.0 0.00 0.00 0.00 84 1015.5
20260505081406 13 12 0.0 0.0 0.00 0.00 0.00 85 1015.4
20260505081348 13 12 0.0 0.0 0.00 0.00 0.00 83 1015.4
20260505080832 13 12 0.0 0.0 0.00 0.00 0.00 82 1015.3
20260505080437 13 12 0.0 0.0 0.00 0.00 0.00 83 1015.4
20260505075818 13 12 0.0 0.0 0.00 0.00 0.00 81 1015.3
20260505074806 13 12 0.0 0.0 0.00 0.00 0.00 81 1015.3
20260505074253 13 12 0.0 0.0 0.00 0.00 0.00 81 1015.2
20260505073753 13 12 0.0 0.0 0.00 0.00 0.00 80 1015.2
20260505073254 13 12 0.0 0.0 0.00 0.00 0.00 80 1015.1
20260505072754 13 12 0.0 0.0 0.00 0.00 0.00 80 1015.1
20260505072247 13 12 0.0 0.0 0.00 0.00 0.00 80 1015.0
20260505071734 13 12 0.0 0.0 0.00 0.00 0.00 80 1015.0
20260505071232 13 12 0.0 0.0 0.00 0.00 0.00 80 1014.9
20260505070712 13 11 0.0 0.0 0.00 0.00 0.00 80 1015.0
20260505070207 13 11 0.0 0.0 0.00 0.00 0.00 80 1015.1
20260505065656 13 12 0.0 0.0 0.00 0.00 0.00 80 1015.0
20260505065152 13 12 0.0 0.0 0.00 0.00 0.00 79 1015.1
20260505065142 13 12 0.0 0.0 0.00 0.00 0.00 79 1015.2
20260505064635 13 12 0.0 0.0 0.00 0.00 0.00 79 1015.1
20260505063622 14 12 0.0 0.0 0.00 0.00 0.00 79 1015.1
20260505063113 14 12 0.0 0.0 0.00 0.00 0.00 79 1015.1
20260505062605 14 11 0.0 0.0 0.00 0.00 0.00 78 1015.2
20260505062103 14 12 0.0 0.0 0.00 0.00 0.00 78 1015.3
20260505062047 14 11 0.0 0.0 0.00 0.00 0.00 77 1015.3
20260505061541 14 12 0.0 0.0 0.00 0.00 0.00 77 1015.3
20260505060940 14 12 0.0 0.0 0.00 0.00 0.00 76 1015.4
20260505060544 14 12 0.0 0.0 0.00 0.00 0.00 77 1015.4
20260505055902 15 12 0.0 0.0 0.00 0.00 0.00 76 1015.4
20260505054853 15 12 0.0 0.0 0.00 0.00 0.00 75 1015.5
20260505054353 15 12 0.0 0.0 0.00 0.00 0.00 74 1015.5
20260505053848 15 12 0.0 0.0 0.00 0.00 0.00 74 1015.6
20260505053334 15 12 0.0 0.0 0.00 0.00 0.00 74 1015.6
20260505052822 15 12 0.0 0.0 0.00 0.00 0.00 74 1015.7
20260505052319 15 11 0.0 0.0 0.00 0.00 0.00 73 1015.7
20260505051758 15 12 0.0 0.0 0.00 0.00 0.00 73 1015.8
20260505051720 16 12 0.0 0.0 0.00 0.00 0.00 70 1015.8
20260505051324 15 12 0.0 0.0 0.00 0.00 0.00 73 1015.8
20260505050825 16 12 0.0 0.0 0.00 0.00 0.00 72 1015.8
20260505050322 16 12 0.0 0.0 0.00 0.00 0.00 71 1015.8
20260505041523 16 12 0.0 0.0 0.00 0.00 0.00 70 1015.9
20260505041010 16 12 0.0 0.0 0.00 0.00 0.00 71 1015.9
20260505040502 16 11 0.0 0.0 0.00 0.00 0.00 70 1015.9
20260505035955 16 11 0.0 0.0 0.00 0.00 0.00 69 1015.9
20260505035455 16 12 0.0 0.0 0.00 0.00 0.00 68 1015.9
20260505035002 17 11 0.0 0.0 0.00 0.00 0.00 67 1016.1
20260505034939 16 12 0.0 0.0 0.00 0.00 0.00 67 1016.0
20260505034856 17 11 0.0 0.0 0.00 0.00 0.00 66 1016.1
20260505034001 17 12 0.0 0.0 0.00 0.00 0.00 68 1016.0
20260505032855 17 11 0.0 0.0 0.00 0.00 0.00 67 1016.1
20260505032355 17 11 0.0 0.0 0.00 0.00 0.00 66 1016.2
20260505032351 17 11 0.0 0.0 0.00 0.00 0.00 66 1016.0
20260505031351 17 11 0.0 0.0 0.00 0.00 0.00 65 1016.2
20260505030851 17 11 0.0 0.0 0.00 0.00 0.00 65 1016.1
20260505030335 17 11 0.0 0.0 0.00 0.00 0.00 64 1016.3
20260505025817 17 11 0.0 0.0 0.00 0.00 0.00 64 1016.3
20260505025319 17 11 0.0 0.0 0.00 0.00 0.00 63 1016.3
20260505024817 17 12 0.0 0.0 0.00 0.00 0.00 62 1016.3
20260505024303 17 11 0.0 0.0 0.00 0.00 0.00 62 1016.2
20260505023755 18 11 0.0 0.0 0.00 0.00 0.00 60 1016.2
20260505023250 18 11 0.0 0.0 0.00 0.00 0.00 60 1016.2
20260505022748 18 12 0.0 0.0 0.00 0.00 0.00 59 1016.1
20260505022247 18 11 0.0 0.0 0.00 0.00 0.00 59 1016.0
20260505021739 18 11 0.0 0.0 0.00 0.00 0.00 59 1015.9
20260505021718 18 11 0.0 0.0 0.00 0.00 0.00 58 1015.9
20260505021156 18 11 0.0 0.0 0.00 0.00 0.00 59 1015.8
20260505020154 18 11 0.0 0.0 0.00 0.00 0.00 57 1015.6
20260505020148 17 12 0.0 0.0 0.00 0.00 0.00 58 1015.5
20260505015643 18 12 0.0 0.0 0.00 0.00 0.00 59 1015.6
20260505014639 17 12 0.0 0.0 0.00 0.00 0.00 64 1015.4
20260505014622 17 12 0.0 0.0 0.00 0.00 0.00 54 1015.2
20260505014226 17 12 0.0 0.0 0.00 0.00 0.00 55 1015.3
20260505013111 17 12 0.0 0.0 0.00 0.00 0.00 54 1015.2
20260505012535 18 12 0.0 0.0 0.00 0.00 0.00 53 1015.2
20260505012019 18 12 0.0 0.0 0.00 0.00 0.00 53 1015.1
20260505011511 18 12 0.0 0.0 0.00 0.00 0.00 52 1015.0
20260505011011 18 13 0.0 0.0 0.00 0.00 0.00 51 1015.1
20260505010455 18 12 0.0 0.0 0.00 0.00 0.00 51 1015.0
20260505005952 19 12 0.0 0.0 0.00 0.00 0.00 51 1015.0
20260505005447 19 12 0.0 0.0 0.00 0.00 0.00 51 1014.9
20260505004935 20 12 0.0 0.0 0.00 0.00 0.00 51 1014.8
20260505004436 20 12 0.0 0.0 0.00 0.00 0.00 49 1014.7
20260505004432 20 12 0.0 0.0 0.00 0.00 0.00 50 1014.8
20260505003416 20 12 0.0 0.0 0.00 0.00 0.00 50 1014.7
20260505003404 21 12 0.0 0.0 0.00 0.00 0.00 49 1014.6
20260505002855 21 12 0.0 0.0 0.00 0.00 0.00 47 1014.6
20260505002502 21 12 0.0 0.0 0.00 0.00 0.00 46 1014.6
20260505001354 22 12 0.0 0.0 0.00 0.00 0.00 45 1014.6
20260505000855 22 12 0.0 0.0 0.00 0.00 0.00 43 1014.6
20260505000850 22 12 0.0 0.0 0.00 0.00 0.00 42 1014.4
20260504235845 22 12 0.0 0.0 0.00 0.00 0.00 43 1014.3
20260504235339 23 12 0.0 0.0 0.00 0.00 0.00 42 1014.4
20260504234826 23 12 0.0 0.0 0.00 0.00 0.00 42 1014.4
20260504234317 23 12 0.0 0.0 0.00 0.00 0.00 40 1014.3
20260504233809 23 11 0.0 0.0 0.00 0.00 0.00 40 1014.3
20260504233311 24 12 0.0 0.0 0.00 0.00 0.00 39 1014.2
20260504232757 24 12 0.0 0.0 0.00 0.00 0.00 37 1014.0
20260504232752 24 12 0.0 0.0 0.00 0.00 0.00 38 1014.2
20260504232402 24 13 0.0 0.0 0.00 0.00 0.00 38 1014.2
20260504231251 25 12 0.0 0.0 0.00 0.00 0.00 38 1014.1
20260504230751 25 12 0.0 0.0 0.00 0.00 0.00 35 1014.1
20260504230243 25 11 0.0 0.0 0.00 0.00 0.00 34 1014.1
20260504225739 25 11 0.0 0.0 0.00 0.00 0.00 35 1014.1
20260504225223 25 11 0.0 0.0 0.00 0.00 0.00 33 1014.1
20260504224717 25 12 0.0 0.0 0.00 0.00 0.00 34 1014.2
20260504224203 25 11 0.0 0.0 0.00 0.00 0.00 34 1014.2
20260504223704 25 11 0.0 0.0 0.00 0.00 0.00 31 1014.2
20260504223152 26 12 0.0 0.0 0.00 0.00 0.00 31 1014.2
20260504222650 26 11 0.0 0.0 0.00 0.00 0.00 29 1014.1
20260504222139 26 11 0.0 0.0 0.00 0.00 0.00 30 1014.2
20260504221637 26 12 0.0 0.0 0.00 0.00 0.00 31 1014.2
20260504221142 26 11 0.0 0.0 0.00 0.00 0.00 29 1014.3
20260504220629 26 11 0.0 0.0 0.00 0.00 0.00 28 1014.2
20260504220116 27 11 0.0 0.0 0.00 0.00 0.00 30 1014.2
20260504215611 27 11 0.0 0.0 0.00 0.00 0.00 28 1014.1
20260504215047 27 11 0.0 0.0 0.00 0.00 0.00 27 1014.1
20260504214541 28 13 0.0 0.0 0.00 0.00 0.00 28 1014.1
20260504214531 27 11 0.0 0.0 0.00 0.00 0.00 27 1014.1
20260504213522 27 11 0.0 0.0 0.00 0.00 0.00 28 1014.1
20260504213014 27 11 0.0 0.0 0.00 0.00 0.00 27 1014.1
20260504212514 28 11 0.0 0.0 0.00 0.00 0.00 31 1014.1
20260504212013 28 12 0.0 0.0 0.00 0.00 0.00 28 1014.2
20260504211515 28 12 0.0 0.0 0.00 0.00 0.00 27 1014.1
20260504211002 28 11 0.0 0.0 0.00 0.00 0.00 26 1014.2
20260504210503 28 11 0.0 0.0 0.00 0.00 0.00 26 1014.2
20260504205943 27 11 0.0 0.0 0.00 0.00 0.00 25 1014.2
20260504205439 27 11 0.0 0.0 0.00 0.00 0.00 25 1014.2
20260504205434 27 11 0.0 0.0 0.00 0.00 0.00 26 1014.3
20260504204424 27 12 0.0 0.0 0.00 0.00 0.00 25 1014.4
20260504203917 27 11 0.0 0.0 0.00 0.00 0.00 27 1014.5
20260504203409 27 12 0.0 0.0 0.00 0.00 0.00 25 1014.5
20260504203352 27 11 0.0 0.0 0.00 0.00 0.00 24 1014.6
20260504203002 27 11 0.0 0.0 0.00 0.00 0.00 23 1014.7
20260504201845 27 11 0.0 0.0 0.00 0.00 0.00 24 1014.8
20260504201338 27 11 0.0 0.0 0.00 0.00 0.00 24 1014.8
20260504200831 27 11 0.0 0.0 0.00 0.00 0.00 23 1015.0
20260504200825 28 11 0.0 0.0 0.00 0.00 0.00 23 1015.0
20260504200302 27 12 0.0 0.0 0.00 0.00 0.00 24 1015.2
20260504195757 27 11 0.0 0.0 0.00 0.00 0.00 23 1015.1
20260504195255 27 12 0.0 0.0 0.00 0.00 0.00 23 1015.1
20260504194251 27 11 0.0 0.0 0.00 0.00 0.00 24 1015.3
20260504193745 27 12 0.0 0.0 0.00 0.00 0.00 27 1015.3
20260504193236 27 11 0.0 0.0 0.00 0.00 0.00 26 1015.4
20260504192735 27 12 0.0 0.0 0.00 0.00 0.00 26 1015.4
20260504192225 27 11 0.0 0.0 0.00 0.00 0.00 29 1015.3
20260504191717 27 11 0.0 0.0 0.00 0.00 0.00 29 1015.4
20260504191216 27 11 0.0 0.0 0.00 0.00 0.00 28 1015.4
20260504190646 27 12 0.0 0.0 0.00 0.00 0.00 28 1015.4
20260504190143 27 12 0.0 0.0 0.00 0.00 0.00 27 1015.5
20260504185645 27 12 0.0 0.0 0.00 0.00 0.00 28 1015.6
20260504185638 27 12 0.0 0.0 0.00 0.00 0.00 27 1015.5
20260504184629 27 11 0.0 0.0 0.00 0.00 0.00 27 1015.7
20260504184128 26 11 0.0 0.0 0.00 0.00 0.00 26 1015.6
20260504183618 27 11 0.0 0.0 0.00 0.00 0.00 28 1015.8
20260504183116 27 11 0.0 0.0 0.00 0.00 0.00 29 1015.8
20260504182611 27 13 0.0 0.0 0.00 0.00 0.00 28 1015.9
20260504182110 27 12 0.0 0.0 0.00 0.00 0.00 27 1015.9
20260504181606 26 12 0.0 0.0 0.00 0.00 0.00 30 1015.9
20260504181057 26 12 0.0 3.2 0.00 0.00 0.00 29 1015.9
20260504180553 26 11 0.0 3.2 0.00 0.00 0.00 28 1016.1
20260504180050 27 11 0.0 0.0 0.00 0.00 0.00 28 1016.1
20260504175551 27 12 0.0 0.0 0.00 0.00 0.00 27 1016.2
20260504175047 27 12 0.0 0.0 0.00 0.00 0.00 29 1016.3
20260504174547 26 12 0.0 0.0 0.00 0.00 0.00 26 1016.2
20260504174046 26 12 0.0 0.0 0.00 0.00 0.00 31 1016.3
20260504173549 26 11 0.0 0.0 0.00 0.00 0.00 26 1016.3
20260504173047 26 11 0.0 3.2 0.00 0.00 0.00 27 1016.4
20260504172535 26 11 0.0 3.2 0.00 0.00 0.00 25 1016.5
20260504172034 26 12 0.0 0.0 0.00 0.00 0.00 27 1016.4
20260504172028 26 13 0.0 0.0 0.00 0.00 0.00 30 1016.6
20260504171027 26 11 0.0 0.0 0.00 0.00 0.00 27 1016.5
20260504170532 26 13 0.0 0.0 0.00 0.00 0.00 28 1016.7
20260504170526 26 12 0.0 0.0 0.00 0.00 0.00 27 1016.7
20260504160356 24 12 0.0 0.0 0.00 0.00 0.00 37 1017.5
20260504150753 22 11 0.0 1.6 0.00 0.00 0.00 41 1017.6
20260504150254 22 11 0.0 0.0 0.00 0.00 0.00 40 1017.6
20260504141153 20 11 0.0 0.0 0.00 0.00 0.00 66 1017.9
20260504140654 20 12 0.0 0.0 0.00 0.00 0.00 67 1017.8
20260504140649 20 12 0.0 0.0 0.00 0.00 0.00 61 1017.6
20260504140253 20 12 0.0 0.0 0.00 0.00 0.00 63 1017.7
20260504130632 18 11 0.0 0.0 0.00 0.00 0.00 65 1017.5
20260504130121 18 11 0.0 0.0 0.00 0.00 0.00 64 1017.6
20260504110656 11 11 0.0 0.0 0.00 0.00 0.00 90 1017.4